Other Public Products
Issued by NWS Grand Forks, ND

Home | Current Version | Previous Version | Text Only | Print | Product List | Glossary Off
Versions: 1 2 3 4 5 6 7 8 9 10 11 12 13 14 15 16 17 18 19 20 21 22 23 24 25 26 27 28 29 30 31 32 33 34 35 36 37 38 39 40 41 42 43 44 45 46 47 48 49 50

000
FPUS83 KFGF 010310
OPUFGF
PRAIRIE TO PINES WEATHER ROUNDUP
NATIONAL WEATHER SERVICE EASTERN NORTH DAKOTA/GRAND FORKS ND
900 PM CST SAT JAN 31 2015

 **SATELLITE DATA USED TO AUGMENT SKY COVER AT AUTOMATED STATIONS**
 *****  WEATHER ACROSS EASTERN NORTH DAKOTA  *****

CITY           SKY/WX    TMP DP  RH WIND       PRES   REMARKS
GRAND FORKS    PTCLDY    -6 -15  65 N16       30.51S WCI -28
GRAND FORKS AF PTCLDY    -8 -17  65 N17G23    30.51S WCI -31
GRAND CITY NWS   N/A     -9 N/A N/A N20         N/A  WCI -34
BUXTON         NOT AVBL
DEVILS LAKE    MOCLDY    -8 -18  59 NE15      30.45S WCI -29
FARGO          CLOUDY     1  -9  62 N22       30.40S WCI -21
WAHPETON ARPT  CLOUDY     9  -2  61 N22G28    30.32R WCI -11
$$

 *****  WEATHER ACROSS CENTRAL AND WESTERN NORTH DAKOTA  *****

CITY           SKY/WX    TMP DP  RH WIND       PRES   REMARKS
JAMESTOWN      CLOUDY    -2 -11  65 N20       30.38R WCI -24
BISMARCK       LGT SNOW   0  -5  79 NE18      30.39R WCI -21
MINOT          CLOUDY    -6 -14  68 N14       30.46S WCI -26
MINOT AFB      PTCLDY    -7 -14  73 NE14      30.48R WCI -28
GARRISON         N/A     -2 -12  62 NE9       30.41R WCI -18
WILLISTON      FLURRIES   0  -8  69 NE10      30.45R WCI -16
DICKINSON      LGT SNOW   1  -4  79 NE15      30.26R VSB 1   WCI -18
HETTINGER      LGT SNOW   5   1  83 NE14G24   30.23R FOG     WCI -12
$$

 *****  OTHER OBSERVATIONS NORTHEAST NORTH DAKOTA  *****

CITY           SKY/WX    TMP DP  RH WIND       PRES   REMARKS
WALHALLA         N/A     -9 -18  64 N15       30.58S WCI -31
LANGDON        NOT AVBL
CAVALIER       FAIR      -9 -17  70 N15       30.57R WCI -31
GRAFTON        NOT AVBL
CANDO          CLOUDY    -9 -18  64 NE17G24   30.48F WCI -33
FORT TOTTEN      N/A     -9 -18  63 N7        29.95S WCI -24
ROLLA          FAIR     -11 -18  70 N15       30.46F WCI -34
RUGBY          FAIR      -8 -17  65 NE15      30.48R WCI -29
 ***** THE ABOVE OBSERVATIONS ARE NON NWS ARE NOT QUALITY
        CONTROLLED AND MAY MIS-REPORT RAIN FOR SNOW...
$$

 *****  OTHER OBSERVATIONS SOUTHEAST NORTH DAKOTA *****

CITY           SKY/WX    TMP DP  RH WIND       PRES   REMARKS
COOPERSTOWN    NOT AVBL
VALLEY CITY    FLURRIES  -2  -9  71 N15G21    30.38S WCI -22
OAKES            N/A      1  -4  78 N28G33    30.31R WCI -23
GWINNER        CLOUDY     5  -6  61 N24       30.33S WCI -17
BUFFALO        NOT AVBL
WYNDMERE         N/A      3  -6  66 VRB17       N/A  WCI -17
 ***** THE ABOVE OBSERVATIONS ARE NON NWS ARE NOT QUALITY
       CONTROLLED AND MAY MIS-REPORT RAIN FOR SNOW...
$$

  *****  WEATHER ACROSS NORTHERN MINNESOTA  *****

CITY           SKY/WX    TMP DP  RH WIND       PRES   REMARKS
FLAG ISLAND    PTCLDY    -9 -17  70 N8        30.48S WCI -26
WARROAD        FAIR      -8 -17  65 N9        30.47S WCI -25
ROSEAU         PTCLDY    -8 -15  71 N6        30.49R WCI -21
HALLOCK        PTCLDY    -9 -18  64 N14       30.54R WCI -31
THF RVR FALLS  PTCLDY    -2 -11  65 N13       30.44R WCI -21
HALSTAD          N/A     -2 -13  60 N18         N/A  WCI -24
FOSSTON        PTCLDY    -4 -11  71 N10G16    30.39R WCI -21
BAUDETTE       PTCLDY    -9 -16  71 N7        30.44S WCI -24
WASKISH        PTCLDY    -8 -11  84 N8        30.41S WCI -23
CROOKSTON      PTCLDY    -4 -11  71 N15G22    30.48S WCI -25
$$
  *****  WEATHER ACROSS CENTRAL AND WEST MINNESOTA  *****

CITY           SKY/WX    TMP DP  RH WIND       PRES   REMARKS
BEMIDJI        MOCLDY    -3  -9  73 N7        30.36S WCI -16
PARK RAPIDS    PTCLDY     5  -5  63 N13G24    30.28F WCI -12
WADENA         MOCLDY     9  -2  61 NE16G22   30.27R WCI  -9
DETROIT LAKES  MOCLDY     9  -2  61 NE9       30.31S WCI  -5
MOORHEAD       MOCLDY     5  -6  61 N21G26    30.38S WCI -16
FERGUS FALLS   FAIR      10  -4  52 NE13G18   30.32R WCI  -5
ELBOW LAKE     CLOUDY    14   1  55 NE15      30.25R WCI  -2
MORRIS MN      MOCLDY    19   5  53 NE16      30.21S WCI   5
STAPLES        MOCLDY    10   0  61 NE8       30.26F WCI  -1
WHEATON        CLOUDY    10   1  67 N21       30.29R WCI  -9
$$
  *****  WEATHER ELSEWHERE ACROSS MINNESOTA  *****

CITY           SKY/WX    TMP DP  RH WIND       PRES   REMARKS
DULUTH         FAIR       7  -6  55 N14       30.28R WCI -10
INTRNTL FALLS  MOCLDY    -8 -17  64 N7        30.42R WCI -23
ELY            MOCLDY    -6 -11  77 CALM      30.34S
CLOQUET        MOCLDY     9  -6  52 N10       30.29R WCI  -6
BRAINERD       CLOUDY    12  -1  56 NE14      30.27R WCI  -3
HIBBING        PTCLDY     2 -10  57 N6        30.32S WCI  -9
ALEXANDRIA     CLOUDY    14   2  58 NE14      30.22S WCI  -1
SAINT CLOUD    CLOUDY    21   2  43 NE16      30.22R WCI   7
MINNEAPOLIS    CLOUDY    25  12  58 NE17      30.19S WCI  12
$$

  *****  WEATHER ACROSS SOUTH DAKOTA  *****

CITY           SKY/WX    TMP DP  RH WIND       PRES   REMARKS
SIOUX FALLS    LGT SNOW  24  21  88 NE21      30.03F VSB 3/4 WCI   9
BROOKINGS      NOT AVBL
WATERTOWN      CLOUDY    13   3  64 NE18G29   30.12F WCI  -4
HURON          CLOUDY    17   7  64 NE20G25   30.16R WCI   1
SISSETON         N/A      8  -1  66 NE22      30.27R WCI -12
ABERDEEN       CLOUDY     7  -4  60 NE22G33   30.26S WCI -14
MITCHELL       FRZ RAIN  22  20  92 N21G28    30.10S FOG     WCI   6
PIERRE         CLOUDY    14   4  64 NE21      30.16R WCI  -4
MOBRIDGE       CLOUDY    11  -2  56 N18G28    30.23R WCI  -7
RAPID CITY     LGT SNOW  17  15  92 NE15      30.08R VSB 3/4 WCI   2
$$

  *****  SOME WEATHER IN NEARBY STATES *****

CITY           SKY/WX    TMP DP  RH WIND       PRES   REMARKS
GLASGOW MT     LGT SNOW   6   0  76 NE8       30.42R WCI  -7
GREAT FALLS MT CLOUDY     9   5  84 CALM      30.33R
CHEYENNE WY    MOCLDY    30  23  75 N24G36    29.84R WCI  16
SCOTTSBLUFF NE LGT SNOW  27  25  92 N14       29.95R FOG     WCI  16
OMAHA NE       LGT SNOW  33  32  96 CALM      29.92F VSB 1
DES MOINES IA  LGT SNOW  34  32  92 E5        29.99F VSB 3/4
DAVENPORT IA   LGT SNOW  32  30  92 S7        30.10F VSB 1
CHICAGO IL     LGT SNOW  31  29  92 NE8       30.14F FOG     WCI  23
EAU CLAIRE WI  CLOUDY    21  11  65 NE9G21    30.20S WCI  11
LA CROSSE WI   CLOUDY    30  20  66 NE14      30.16F WCI  19
$$

  *****  SOME NATIONAL WEATHER *****

CITY           SKY/WX    TMP DP  RH WIND       PRES   REMARKS
LA GUARDIA NY  PTCLDY    21   7  54 NW16G24   30.21R WCI   7
RALEIGH NC     MOCLDY    34  15  46 CALM      30.29F
ATLANTA GA     CLOUDY    48  20  32 CALM      30.28F
NEW ORLEANS LA MOCLDY    57  50  77 E8        30.16S
OKLAHOMA CITY  LGT RAIN  43  40  89 S9        29.89F FOG
ALBUQUERQUE NM PTCLDY    38  34  85 CALM      29.93R
SALT LAKE CITY CLEAR     38  29  70 W6        30.12R
LOS ANGELES CA PTCLDY    60  55  83 W8        29.94R
BOISE ID       CLEAR     40  30  67 NW5       30.16S
SEATTLE WA     CLOUDY    43  40  89 NE7       30.16F
$$

*** WEATHER ACROSS MANITOBA...SASKATCHEWAN AND ONTARIO ***
                ***ONTARIO***

CITY           SKY/WX    TMP DP  RH WIND       PRES   REMARKS
GERALDTON      CLEAR    -22 -27  76 W3        30.39R
THUNDER BAY    CLEAR     -6 -15  65 N5        30.46S WCI -17
SIOUX LOOKOUT  CLEAR    -18 -24  76 CALM      30.43S
TORONTO        CLOUDY    27  21  80 W10       30.14F WCI  17
BIG TROUT LK   CLEAR    -22 -29  69 W8        30.38S WCI -41
PICKLE LAKE    NOT AVBL
DRYDEN         CLEAR    -13 -18  77 N5        30.43S WCI -25
KENORA         CLEAR    -15 -20  76 N7        30.45S WCI -31
$$
                *** MANITOBA***

CITY           SKY/WX    TMP DP  RH WIND       PRES   REMARKS
BRANDON        MOCLDY   -20 -26  76 NW3       30.57S
DAUPHIN        CLEAR    -18 -27  63 W8        30.62S WCI -37
ISLAND LAKE    CLEAR    -22 -29  69 W5        30.49F WCI -36
PILOT MOUND      N/A    -15 -22  70 N7          N/A  WCI -31
THE PAS        CLEAR    -18 -26  69 W6        30.60F WCI -33
THOMPSON       CRYSTALS -20 -27  69 W7        30.48F WCI -37
WINNIPEG       CLEAR    -13 -26  53 N9        30.61S WCI -31
LYNN LAKE      CLEAR    -22 -29  69 W10       30.44F WCI -44
CHURCHILL      CLEAR    -22 -31  63 NW24G30   30.32F WCI -53
GILLAM         CLEAR    -18 -27  63 W13       30.41S WCI -41
$$
                ***SASKATCHEWAN***

CITY           SKY/WX    TMP DP  RH WIND       PRES   REMARKS
ESTEVAN        CLOUDY    -6 -17  59 E7        30.48S WCI -20
KINDERSLEY     PTCLDY   -13 -17  84 SE7       30.48F WCI -29
LLOYDMINSTER   PTCLDY    -6 -11  77 SW7       30.45F WCI -20
PRINCE ALBERT  CLOUDY   -11 -18  70 SW5       30.58S WCI -23
REGINA         PTCLDY    -6 -13  71 NE3       30.51F
YORKTON        CLEAR    -15 -22  70 W5        30.54F WCI -27



USA.gov is the U.S. government's official web portal to all federal, state and local government web resources and services.